Simultaneous Nadir Overpasses (SNOs) Predictions

Prediction of SNOs between METOP-B and NOAA-19 Satellite Orbit:

Table of predicted SNOs for the next 14.0 days since TLE Epoch: 10/22/2022
Index Date (METOP-B) Time (METOP-B) Lat,Lon (METOP-B) SZA (METOP-B ) Date (NOAA-19) Time (NOAA-19) Lat,Lon (NOAA-19) SZA (NOAA-19 ) Distance(km) Time Diff (sec)
1 10/28/2022 01:38:30 -80.91, 10.19 84.12 10/28/2022 01:37:20 -80.90, 10.07 84.16 2.28 70
2 10/28/2022 02:29:11 80.89, 177.26 95.86 10/28/2022 02:28:25 80.90, 177.37 95.86 2.19 46
3 10/28/2022 03:19:52 -80.90, -15.29 84.11 10/28/2022 03:19:19 -80.90, -15.18 84.12 1.97 33
4 10/28/2022 04:10:32 80.90, 152.14 95.92 10/28/2022 04:10:24 80.90, 152.13 95.91 0.72 8
5 10/28/2022 05:01:14 -80.89, -40.77 84.11 10/28/2022 05:01:19 -80.90, -40.79 84.10 0.88 5
6 10/28/2022 05:51:54 80.90, 126.66 95.92 10/28/2022 05:52:24 80.90, 126.51 95.92 2.55 30
7 10/28/2022 06:42:35 -80.90, -65.89 84.06 10/28/2022 06:43:18 -80.90, -66.04 84.06 2.73 43



Historial Predications of SNOs between METOP-B and NOAA-19
